Zurück zum Katalog

CZ-4C R/B

AktivPO
NORAD 57798·ROCKET BODY·🇨🇳 China

Gestartet Sep 6, 2023 von Jiuquan Satellite Launch Center

Loading…

Nächste Überflüge (nächste 24 Stunden)

TLE

AktuellSource: Space-Track

Epoche: Sep 14, 2026, 11:34 UTC

1 57798U 23136B   26257.48252246  .00003109  00000-0  20350-3 0  9992
2 57798  98.3139 259.2457 0108428   1.4848 358.6677 15.03879050165331

Verfolge CZ-4C R/B in Echtzeit mit AllMySat

Download on the App Store